| time (UTC) | temp C | wind direction | speed KPH | gust KPH | rain 1hr cm | rain 24hr cm | rain mn cm | humidity % | barometer mb |
| 20260506161105 | 20 | 100 | 3.2 | 8.0 | 0.00 | 0.00 | 0.00 | 65 | 1009.0 |
| 20260506160605 | 20 | 140 | 3.2 | 9.7 | 0.00 | 0.00 | 0.00 | 65 | 1009.0 |
| 20260506160105 | 20 | 203 | 4.8 | 11.3 | 0.00 | 0.00 | 0.00 | 64 | 1009.1 |
| 20260506155605 | 20 | 199 | 1.6 | 9.7 | 0.00 | 0.00 | 0.00 | 64 | 1009.1 |
| 20260506155105 | 20 | 166 | 3.2 | 8.0 | 0.00 | 0.00 | 0.00 | 63 | 1009.1 |
| 20260506154605 | 20 | 156 | 4.8 | 11.3 | 0.00 | 0.00 | 0.00 | 62 | 1009.1 |
| 20260506154105 | 20 | 157 | 3.2 | 14.5 | 0.00 | 0.00 | 0.00 | 63 | 1009.1 |
| 20260506153105 | 21 | 123 | 4.8 | 14.5 | 0.00 | 0.00 | 0.00 | 62 | 1009.0 |
| 20260506152605 | 21 | 143 | 3.2 | 11.3 | 0.00 | 0.00 | 0.00 | 61 | 1009.0 |
| 20260506152105 | 21 | 190 | 4.8 | 12.9 | 0.00 | 0.00 | 0.00 | 60 | 1009.1 |
| 20260506151605 | 21 | 152 | 3.2 | 19.3 | 0.00 | 0.00 | 0.00 | 60 | 1009.2 |
| 20260506151105 | 21 | 152 | 6.4 | 14.5 | 0.00 | 0.00 | 0.00 | 59 | 1009.1 |
| 20260506150605 | 21 | 122 | 3.2 | 8.0 | 0.00 | 0.00 | 0.00 | 59 | 1009.0 |
| 20260506150104 | 21 | 180 | 4.8 | 11.3 | 0.00 | 0.00 | 0.00 | 59 | 1009.0 |
| 20260506145605 | 21 | 143 | 4.8 | 14.5 | 0.00 | 0.00 | 0.00 | 59 | 1009.1 |
| 20260506145105 | 21 | 155 | 3.2 | 19.3 | 0.00 | 0.00 | 0.00 | 60 | 1009.2 |
| 20260506144105 | 20 | 145 | 3.2 | 16.1 | 0.00 | 0.00 | 0.00 | 60 | 1009.3 |
| 20260506143605 | 20 | 127 | 4.8 | 16.1 | 0.00 | 0.00 | 0.00 | 60 | 1009.3 |
| 20260506143104 | 20 | 201 | 3.2 | 19.3 | 0.00 | 0.00 | 0.00 | 60 | 1009.3 |
| 20260506142605 | 20 | 125 | 4.8 | 19.3 | 0.00 | 0.00 | 0.00 | 59 | 1009.2 |
| 20260506142105 | 20 | 153 | 4.8 | 9.7 | 0.00 | 0.00 | 0.00 | 59 | 1009.2 |
| 20260506141605 | 21 | 171 | 6.4 | 19.3 | 0.00 | 0.00 | 0.00 | 59 | 1009.3 |
| 20260506141104 | 21 | 159 | 8.0 | 19.3 | 0.00 | 0.00 | 0.00 | 58 | 1009.2 |
| 20260506140605 | 21 | 142 | 8.0 | 19.3 | 0.00 | 0.00 | 0.00 | 58 | 1009.4 |
| 20260506140105 | 21 | 122 | 4.8 | 16.1 | 0.00 | 0.00 | 0.00 | 58 | 1009.2 |
| 20260506135605 | 21 | 169 | 4.8 | 19.3 | 0.00 | 0.00 | 0.00 | 59 | 1009.0 |
| 20260506135105 | 20 | 124 | 4.8 | 9.7 | 0.00 | 0.00 | 0.00 | 60 | 1009.0 |
| 20260506134605 | 20 | 128 | 3.2 | 22.5 | 0.00 | 0.00 | 0.00 | 60 | 1009.0 |
| 20260506134105 | 20 | 169 | 3.2 | 14.5 | 0.00 | 0.00 | 0.00 | 60 | 1009.0 |
| 20260506133605 | 20 | 165 | 8.0 | 20.9 | 0.00 | 0.00 | 0.00 | 60 | 1009.0 |
| 20260506132605 | 20 | 110 | 4.8 | 12.9 | 0.00 | 0.00 | 0.00 | 60 | 1009.0 |
| 20260506132105 | 20 | 131 | 3.2 | 16.1 | 0.00 | 0.00 | 0.00 | 60 | 1009.1 |
| 20260506131605 | 20 | 108 | 3.2 | 11.3 | 0.00 | 0.00 | 0.00 | 60 | 1009.1 |
| 20260506131104 | 20 | 141 | 8.0 | 19.3 | 0.00 | 0.00 | 0.00 | 60 | 1009.2 |
| 20260506130604 | 20 | 225 | 3.2 | 22.5 | 0.00 | 0.00 | 0.00 | 60 | 1009.3 |
| 20260506130105 | 20 | 139 | 4.8 | 20.9 | 0.00 | 0.00 | 0.00 | 60 | 1009.4 |
| 20260506125604 | 20 | 179 | 8.0 | 14.5 | 0.00 | 0.00 | 0.00 | 59 | 1009.3 |
| 20260506125104 | 21 | 119 | 9.7 | 27.4 | 0.00 | 0.00 | 0.00 | 59 | 1009.4 |
| 20260506124605 | 20 | 141 | 3.2 | 19.3 | 0.00 | 0.00 | 0.00 | 61 | 1009.3 |
| 20260506124105 | 20 | 112 | 6.4 | 19.3 | 0.00 | 0.00 | 0.00 | 61 | 1009.3 |
| 20260506123604 | 20 | 153 | 3.2 | 8.0 | 0.00 | 0.00 | 0.00 | 62 | 1009.3 |
| 20260506123104 | 20 | 284 | 4.8 | 19.3 | 0.00 | 0.00 | 0.00 | 62 | 1009.3 |
| 20260506122605 | 20 | 206 | 4.8 | 16.1 | 0.00 | 0.00 | 0.00 | 63 | 1009.2 |
| 20260506122105 | 20 | 101 | 8.0 | 19.3 | 0.00 | 0.00 | 0.00 | 64 | 1009.2 |
| 20260506121605 | 19 | 135 | 3.2 | 9.7 | 0.00 | 0.00 | 0.00 | 64 | 1009.4 |
| 20260506121105 | 19 | 125 | 1.6 | 11.3 | 0.00 | 0.00 | 0.00 | 65 | 1009.2 |
| 20260506120606 | 18 | 171 | 6.4 | 20.9 | 0.00 | 0.00 | 0.00 | 66 | 1009.3 |
| 20260506120104 | 18 | 123 | 6.4 | 19.3 | 0.00 | 0.00 | 0.00 | 66 | 1009.3 |
| 20260506115605 | 18 | 99 | 3.2 | 19.3 | 0.00 | 0.00 | 0.00 | 66 | 1009.4 |
| 20260506115105 | 18 | 344 | 4.8 | 11.3 | 0.00 | 0.00 | 0.00 | 66 | 1009.4 |
| 20260506114104 | 18 | 120 | 4.8 | 19.3 | 0.00 | 0.00 | 0.00 | 67 | 1009.4 |
| 20260506113604 | 18 | 159 | 3.2 | 12.9 | 0.00 | 0.00 | 0.00 | 67 | 1009.4 |
| 20260506113105 | 18 | 148 | 4.8 | 19.3 | 0.00 | 0.00 | 0.00 | 67 | 1009.3 |
| 20260506112605 | 18 | 119 | 4.8 | 22.5 | 0.00 | 0.00 | 0.00 | 67 | 1009.3 |
| 20260506111605 | 18 | 150 | 8.0 | 22.5 | 0.00 | 0.00 | 0.00 | 67 | 1009.3 |
| 20260506111104 | 18 | 130 | 8.0 | 22.5 | 0.00 | 0.00 | 0.00 | 68 | 1009.3 |
| 20260506110605 | 17 | 125 | 6.4 | 22.5 | 0.00 | 0.00 | 0.00 | 68 | 1009.3 |
| 20260506110105 | 17 | 124 | 6.4 | 14.5 | 0.00 | 0.00 | 0.00 | 68 | 1009.4 |
| 20260506105105 | 17 | 118 | 4.8 | 16.1 | 0.00 | 0.00 | 0.00 | 69 | 1009.3 |
| 20260506103105 | 17 | 120 | 3.2 | 16.1 | 0.00 | 0.00 | 0.00 | 70 | 1009.3 |
| 20260506102605 | 17 | 148 | 3.2 | 14.5 | 0.00 | 0.00 | 0.00 | 70 | 1009.4 |
| 20260506102105 | 17 | 144 | 4.8 | 19.3 | 0.00 | 0.00 | 0.00 | 70 | 1009.4 |
| 20260506101605 | 17 | 95 | 3.2 | 12.9 | 0.00 | 0.00 | 0.00 | 70 | 1009.5 |
| 20260506100605 | 17 | 126 | 3.2 | 12.9 | 0.00 | 0.00 | 0.00 | 70 | 1009.4 |
| 20260506100105 | 17 | 135 | 3.2 | 11.3 | 0.00 | 0.00 | 0.00 | 71 | 1009.3 |
| 20260506095604 | 17 | 137 | 6.4 | 19.3 | 0.00 | 0.00 | 0.00 | 71 | 1009.3 |
| 20260506095104 | 17 | 159 | 4.8 | 11.3 | 0.00 | 0.00 | 0.00 | 71 | 1009.2 |
| 20260506094105 | 17 | 98 | 4.8 | 14.5 | 0.00 | 0.00 | 0.00 | 71 | 1009.1 |
| 20260506093604 | 17 | 124 | 4.8 | 12.9 | 0.00 | 0.00 | 0.00 | 71 | 1009.1 |
| 20260506093105 | 17 | 116 | 3.2 | 11.3 | 0.00 | 0.00 | 0.00 | 71 | 1009.1 |
| 20260506092605 | 17 | 117 | 3.2 | 12.9 | 0.00 | 0.00 | 0.00 | 71 | 1009.1 |
| 20260506091604 | 17 | 119 | 3.2 | 19.3 | 0.00 | 0.00 | 0.00 | 71 | 1009.1 |
| 20260506091105 | 17 | 112 | 3.2 | 12.9 | 0.00 | 0.00 | 0.00 | 70 | 1009.2 |
| 20260506085605 | 17 | 137 | 4.8 | 16.1 | 0.00 | 0.00 | 0.00 | 70 | 1009.3 |
| 20260506085105 | 17 | 117 | 3.2 | 19.3 | 0.00 | 0.00 | 0.00 | 70 | 1009.3 |
| 20260506084604 | 17 | 177 | 4.8 | 12.9 | 0.00 | 0.00 | 0.00 | 70 | 1009.3 |
| 20260506084104 | 17 | 137 | 3.2 | 11.3 | 0.00 | 0.00 | 0.00 | 70 | 1009.3 |
| 20260506083604 | 18 | 123 | 1.6 | 19.3 | 0.00 | 0.00 | 0.00 | 70 | 1009.4 |
| 20260506083104 | 18 | 116 | 4.8 | 19.3 | 0.00 | 0.00 | 0.00 | 70 | 1009.5 |
| 20260506082605 | 18 | 124 | 3.2 | 12.9 | 0.00 | 0.00 | 0.00 | 70 | 1009.6 |
| 20260506081604 | 18 | 125 | 3.2 | 11.3 | 0.00 | 0.00 | 0.00 | 71 | 1009.6 |
| 20260506081104 | 18 | 71 | 1.6 | 9.7 | 0.00 | 0.00 | 0.00 | 70 | 1009.7 |
| 20260506080604 | 18 | 142 | 3.2 | 9.7 | 0.00 | 0.00 | 0.00 | 70 | 1009.6 |
| 20260506080106 | 18 | 137 | 3.2 | 19.3 | 0.00 | 0.00 | 0.00 | 70 | 1009.6 |
| 20260506073104 | 18 | 128 | 3.2 | 9.7 | 0.00 | 0.00 | 0.00 | 70 | 1009.5 |
| 20260506072605 | 18 | 119 | 3.2 | 11.3 | 0.00 | 0.00 | 0.00 | 70 | 1009.5 |
| 20260506072105 | 18 | 131 | 3.2 | 14.5 | 0.00 | 0.00 | 0.00 | 69 | 1009.5 |
| 20260506071605 | 18 | 153 | 3.2 | 12.9 | 0.00 | 0.00 | 0.00 | 69 | 1009.5 |
| 20260506071105 | 18 | 167 | 3.2 | 12.9 | 0.00 | 0.00 | 0.00 | 69 | 1009.6 |
| 20260506070604 | 18 | 125 | 3.2 | 14.5 | 0.00 | 0.00 | 0.00 | 69 | 1009.5 |
| 20260506070104 | 18 | 86 | 3.2 | 14.5 | 0.00 | 0.00 | 0.00 | 69 | 1009.5 |
| 20260506062104 | 18 | 305 | 4.8 | 12.9 | 0.00 | 0.00 | 0.00 | 69 | 1009.7 |
| 20260506061105 | 18 | 137 | 4.8 | 11.3 | 0.00 | 0.00 | 0.00 | 69 | 1009.6 |
| 20260506060604 | 18 | 89 | 1.6 | 14.5 | 0.00 | 0.00 | 0.00 | 68 | 1009.6 |
| 20260506051104 | 19 | 108 | 4.8 | 14.5 | 0.00 | 0.00 | 0.00 | 67 | 1010.1 |
| 20260506050604 | 19 | 146 | 4.8 | 19.3 | 0.00 | 0.00 | 0.00 | 67 | 1010.1 |
| 20260506050104 | 19 | 111 | 6.4 | 11.3 | 0.00 | 0.00 | 0.00 | 67 | 1010.1 |
| 20260506045105 | 19 | 130 | 3.2 | 11.3 | 0.00 | 0.00 | 0.00 | 67 | 1010.2 |
| 20260506044604 | 19 | 144 | 3.2 | 12.9 | 0.00 | 0.00 | 0.00 | 67 | 1010.2 |
| 20260506043604 | 19 | 157 | 4.8 | 12.9 | 0.00 | 0.00 | 0.00 | 66 | 1010.2 |
| 20260506042605 | 19 | 140 | 3.2 | 9.7 | 0.00 | 0.00 | 0.00 | 66 | 1010.2 |
| 20260506042105 | 19 | 133 | 3.2 | 11.3 | 0.00 | 0.00 | 0.00 | 66 | 1010.2 |
| 20260506041605 | 19 | 156 | 4.8 | 12.9 | 0.00 | 0.00 | 0.00 | 66 | 1010.2 |
| 20260506041104 | 19 | 137 | 3.2 | 11.3 | 0.00 | 0.00 | 0.00 | 65 | 1010.1 |
| 20260506040104 | 20 | 144 | 8.0 | 20.9 | 0.00 | 0.00 | 0.00 | 65 | 1010.1 |
| 20260506035605 | 20 | 125 | 6.4 | 19.3 | 0.00 | 0.00 | 0.00 | 65 | 1010.2 |
| 20260506035105 | 19 | 129 | 4.8 | 12.9 | 0.00 | 0.00 | 0.00 | 65 | 1010.2 |
| 20260506034605 | 20 | 138 | 4.8 | 14.5 | 0.00 | 0.00 | 0.00 | 64 | 1010.1 |
| 20260506034104 | 20 | 126 | 3.2 | 14.5 | 0.00 | 0.00 | 0.00 | 64 | 1010.1 |
| 20260506033604 | 20 | 107 | 6.4 | 19.3 | 0.00 | 0.00 | 0.00 | 64 | 1010.1 |
| 20260506033104 | 20 | 151 | 4.8 | 16.1 | 0.00 | 0.00 | 0.00 | 64 | 1010.1 |
| 20260506032605 | 20 | 137 | 1.6 | 22.5 | 0.00 | 0.00 | 0.00 | 63 | 1010.1 |
| 20260506031605 | 20 | 132 | 6.4 | 20.9 | 0.00 | 0.00 | 0.00 | 63 | 1010.1 |
| 20260506031105 | 20 | 111 | 8.0 | 16.1 | 0.00 | 0.00 | 0.00 | 63 | 1010.1 |
| 20260506030605 | 20 | 101 | 4.8 | 19.3 | 0.00 | 0.00 | 0.00 | 62 | 1010.2 |
| 20260506030105 | 20 | 142 | 8.0 | 16.1 | 0.00 | 0.00 | 0.00 | 62 | 1010.2 |
| 20260506025604 | 20 | 119 | 4.8 | 11.3 | 0.00 | 0.00 | 0.00 | 62 | 1010.2 |
| 20260506025105 | 20 | 121 | 3.2 | 11.3 | 0.00 | 0.00 | 0.00 | 62 | 1010.2 |
| 20260506024605 | 20 | 110 | 3.2 | 19.3 | 0.00 | 0.00 | 0.00 | 61 | 1010.3 |
| 20260506024105 | 20 | 124 | 4.8 | 19.3 | 0.00 | 0.00 | 0.00 | 61 | 1010.3 |
| 20260506023605 | 20 | 125 | 6.4 | 20.9 | 0.00 | 0.00 | 0.00 | 61 | 1010.2 |
| 20260506023105 | 20 | 98 | 3.2 | 12.9 | 0.00 | 0.00 | 0.00 | 60 | 1010.3 |
| 20260506022106 | 20 | 117 | 4.8 | 16.1 | 0.00 | 0.00 | 0.00 | 59 | 1010.3 |
| 20260506021605 | 21 | 122 | 3.2 | 16.1 | 0.00 | 0.00 | 0.00 | 59 | 1010.2 |
| 20260506020605 | 21 | 98 | 6.4 | 19.3 | 0.00 | 0.00 | 0.00 | 58 | 1010.2 |
| 20260506020105 | 21 | 122 | 4.8 | 14.5 | 0.00 | 0.00 | 0.00 | 57 | 1010.2 |
| 20260506015605 | 21 | 136 | 8.0 | 19.3 | 0.00 | 0.00 | 0.00 | 57 | 1010.2 |
| 20260506015105 | 21 | 165 | 6.4 | 19.3 | 0.00 | 0.00 | 0.00 | 56 | 1010.1 |
| 20260506014605 | 21 | 126 | 4.8 | 19.3 | 0.00 | 0.00 | 0.00 | 56 | 1010.1 |
| 20260506014105 | 21 | 133 | 4.8 | 20.9 | 0.00 | 0.00 | 0.00 | 56 | 1010.0 |
| 20260506013605 | 21 | 130 | 4.8 | 16.1 | 0.00 | 0.00 | 0.00 | 56 | 1010.0 |
| 20260506013105 | 21 | 114 | 8.0 | 14.5 | 0.00 | 0.00 | 0.00 | 55 | 1010.0 |
| 20260506012604 | 21 | 167 | 3.2 | 19.3 | 0.00 | 0.00 | 0.00 | 55 | 1009.9 |
| 20260506012104 | 21 | 129 | 3.2 | 19.3 | 0.00 | 0.00 | 0.00 | 55 | 1009.9 |
| 20260506011606 | 21 | 137 | 6.4 | 14.5 | 0.00 | 0.00 | 0.00 | 55 | 1009.8 |
| 20260506011112 | 21 | 105 | 4.8 | 12.9 | 0.00 | 0.00 | 0.00 | 55 | 1009.7 |
| 20260506010106 | 21 | 122 | 6.4 | 16.1 | 0.00 | 0.00 | 0.00 | 55 | 1009.7 |
| 20260506005605 | 21 | 114 | 4.8 | 14.5 | 0.00 | 0.00 | 0.00 | 55 | 1009.6 |
| 20260506004605 | 22 | 124 | 8.0 | 19.3 | 0.00 | 0.00 | 0.00 | 55 | 1009.6 |
| 20260506004105 | 22 | 125 | 6.4 | 16.1 | 0.00 | 0.00 | 0.00 | 55 | 1009.6 |
| 20260506003605 | 22 | 146 | 8.0 | 22.5 | 0.00 | 0.00 | 0.00 | 55 | 1009.5 |
| 20260506003105 | 22 | 123 | 4.8 | 14.5 | 0.00 | 0.00 | 0.00 | 55 | 1009.4 |
| 20260506001605 | 22 | 109 | 6.4 | 19.3 | 0.00 | 0.00 | 0.00 | 54 | 1009.3 |
| 20260506001105 | 22 | 134 | 4.8 | 12.9 | 0.00 | 0.00 | 0.00 | 53 | 1009.3 |
| 20260506000605 | 23 | 55 | 8.0 | 19.3 | 0.00 | 0.00 | 0.00 | 51 | 1009.2 |
| 20260506000105 | 23 | 130 | 1.6 | 16.1 | 0.00 | 0.00 | 0.00 | 50 | 1009.2 |
| 20260505235604 | 23 | 140 | 3.2 | 12.9 | 0.00 | 0.00 | 0.00 | 49 | 1009.2 |
| 20260505234105 | 24 | 159 | 3.2 | 8.0 | 0.00 | 0.00 | 0.00 | 46 | 1009.0 |
| 20260505233605 | 24 | 120 | 3.2 | 8.0 | 0.00 | 0.00 | 0.00 | 45 | 1009.0 |
| 20260505233105 | 24 | 132 | 4.8 | 12.9 | 0.00 | 0.00 | 0.00 | 44 | 1008.9 |
| 20260505232605 | 25 | 132 | 4.8 | 19.3 | 0.00 | 0.00 | 0.00 | 43 | 1008.8 |
| 20260505232105 | 25 | 136 | 8.0 | 19.3 | 0.00 | 0.00 | 0.00 | 42 | 1008.7 |
| 20260505231605 | 25 | 130 | 8.0 | 14.5 | 0.00 | 0.00 | 0.00 | 41 | 1008.7 |
| 20260505231105 | 26 | 95 | 4.8 | 22.5 | 0.00 | 0.00 | 0.00 | 39 | 1008.7 |
| 20260505230605 | 26 | 119 | 4.8 | 11.3 | 0.00 | 0.00 | 0.00 | 38 | 1008.6 |
| 20260505230105 | 26 | 137 | 8.0 | 29.0 | 0.00 | 0.00 | 0.00 | 37 | 1008.5 |
| 20260505225105 | 26 | 119 | 8.0 | 24.1 | 0.00 | 0.00 | 0.00 | 37 | 1008.6 |
| 20260505224105 | 26 | 150 | 6.4 | 19.3 | 0.00 | 0.00 | 0.00 | 37 | 1008.7 |
| 20260505223605 | 26 | 169 | 6.4 | 19.3 | 0.00 | 0.00 | 0.00 | 37 | 1008.7 |
| 20260505223104 | 26 | 117 | 4.8 | 19.3 | 0.00 | 0.00 | 0.00 | 37 | 1008.7 |
| 20260505222605 | 27 | 176 | 6.4 | 16.1 | 0.00 | 0.00 | 0.00 | 37 | 1008.7 |
| 20260505222105 | 27 | 175 | 9.7 | 19.3 | 0.00 | 0.00 | 0.00 | 37 | 1008.6 |
| 20260505221605 | 27 | 153 | 9.7 | 20.9 | 0.00 | 0.00 | 0.00 | 36 | 1008.6 |
| 20260505221104 | 27 | 191 | 8.0 | 27.4 | 0.00 | 0.00 | 0.00 | 36 | 1008.5 |
| 20260505220605 | 27 | 126 | 8.0 | 20.9 | 0.00 | 0.00 | 0.00 | 36 | 1008.5 |
| 20260505220105 | 27 | 121 | 4.8 | 22.5 | 0.00 | 0.00 | 0.00 | 35 | 1008.4 |
| 20260505215605 | 27 | 152 | 9.7 | 22.5 | 0.00 | 0.00 | 0.00 | 35 | 1008.6 |
| 20260505215105 | 28 | 153 | 4.8 | 12.9 | 0.00 | 0.00 | 0.00 | 35 | 1008.5 |
| 20260505214604 | 28 | 194 | 6.4 | 19.3 | 0.00 | 0.00 | 0.00 | 35 | 1008.5 |
| 20260505214105 | 28 | 124 | 9.7 | 20.9 | 0.00 | 0.00 | 0.00 | 34 | 1008.4 |
| 20260505213604 | 28 | 157 | 4.8 | 22.5 | 0.00 | 0.00 | 0.00 | 34 | 1008.3 |
| 20260505213105 | 28 | 132 | 8.0 | 19.3 | 0.00 | 0.00 | 0.00 | 33 | 1008.2 |
| 20260505212605 | 28 | 166 | 11.3 | 24.1 | 0.00 | 0.00 | 0.00 | 33 | 1008.2 |
| 20260505212105 | 28 | 137 | 6.4 | 14.5 | 0.00 | 0.00 | 0.00 | 32 | 1008.2 |
| 20260505211604 | 28 | 142 | 8.0 | 19.3 | 0.00 | 0.00 | 0.00 | 32 | 1008.1 |
| 20260505211105 | 28 | 149 | 11.3 | 20.9 | 0.00 | 0.00 | 0.00 | 31 | 1008.0 |
| 20260505210605 | 28 | 121 | 6.4 | 16.1 | 0.00 | 0.00 | 0.00 | 32 | 1008.0 |
| 20260505210105 | 28 | 144 | 8.0 | 12.9 | 0.00 | 0.00 | 0.00 | 31 | 1008.1 |
| 20260505205604 | 28 | 144 | 6.4 | 24.1 | 0.00 | 0.00 | 0.00 | 32 | 1008.0 |
| 20260505205106 | 28 | 128 | 9.7 | 22.5 | 0.00 | 0.00 | 0.00 | 31 | 1008.0 |
| 20260505204604 | 28 | 185 | 8.0 | 25.7 | 0.00 | 0.00 | 0.00 | 32 | 1007.8 |
| 20260505204105 | 28 | 150 | 8.0 | 16.1 | 0.00 | 0.00 | 0.00 | 32 | 1007.9 |
| 20260505203605 | 29 | 135 | 6.4 | 20.9 | 0.00 | 0.00 | 0.00 | 31 | 1007.9 |
| 20260505203105 | 28 | 183 | 4.8 | 16.1 | 0.00 | 0.00 | 0.00 | 32 | 1007.8 |
| 20260505202105 | 28 | 118 | 12.9 | 29.0 | 0.00 | 0.00 | 0.00 | 31 | 1007.8 |
| 20260505201606 | 28 | 151 | 8.0 | 27.4 | 0.00 | 0.00 | 0.00 | 32 | 1007.9 |
| 20260505201104 | 28 | 137 | 8.0 | 27.4 | 0.00 | 0.00 | 0.00 | 32 | 1007.9 |
| 20260505200605 | 29 | 170 | 8.0 | 27.4 | 0.00 | 0.00 | 0.00 | 32 | 1008.0 |
| 20260505200104 | 29 | 207 | 6.4 | 25.7 | 0.00 | 0.00 | 0.00 | 34 | 1007.9 |
| 20260505195605 | 29 | 180 | 6.4 | 20.9 | 0.00 | 0.00 | 0.00 | 35 | 1008.0 |
| 20260505195105 | 29 | 167 | 4.8 | 22.5 | 0.00 | 0.00 | 0.00 | 35 | 1008.1 |
| 20260505194604 | 28 | 147 | 8.0 | 22.5 | 0.00 | 0.00 | 0.00 | 34 | 1008.1 |
| 20260505194105 | 29 | 100 | 4.8 | 16.1 | 0.00 | 0.00 | 0.00 | 35 | 1008.2 |
| 20260505193605 | 29 | 146 | 9.7 | 24.1 | 0.00 | 0.00 | 0.00 | 34 | 1008.3 |
| 20260505193105 | 28 | 158 | 4.8 | 20.9 | 0.00 | 0.00 | 0.00 | 35 | 1008.3 |
| 20260505192606 | 28 | 182 | 8.0 | 19.3 | 0.00 | 0.00 | 0.00 | 35 | 1008.3 |
| 20260505192104 | 28 | 197 | 6.4 | 16.1 | 0.00 | 0.00 | 0.00 | 35 | 1008.3 |
| 20260505191605 | 28 | 184 | 8.0 | 22.5 | 0.00 | 0.00 | 0.00 | 35 | 1008.3 |
| 20260505191104 | 28 | 157 | 6.4 | 19.3 | 0.00 | 0.00 | 0.00 | 36 | 1008.5 |
| 20260505190605 | 28 | 124 | 6.4 | 19.3 | 0.00 | 0.00 | 0.00 | 35 | 1008.5 |
| 20260505190104 | 29 | 132 | 8.0 | 27.4 | 0.00 | 0.00 | 0.00 | 36 | 1008.7 |
| 20260505185605 | 28 | 124 | 8.0 | 22.5 | 0.00 | 0.00 | 0.00 | 35 | 1008.7 |
| 20260505184604 | 28 | 145 | 4.8 | 19.3 | 0.00 | 0.00 | 0.00 | 37 | 1008.9 |
| 20260505184105 | 28 | 169 | 4.8 | 14.5 | 0.00 | 0.00 | 0.00 | 36 | 1009.0 |
| 20260505183604 | 28 | 178 | 8.0 | 19.3 | 0.00 | 0.00 | 0.00 | 36 | 1008.9 |
| 20260505182605 | 28 | 209 | 6.4 | 16.1 | 0.00 | 0.00 | 0.00 | 36 | 1009.0 |
| 20260505182104 | 28 | 155 | 9.7 | 25.7 | 0.00 | 0.00 | 0.00 | 37 | 1009.1 |
| 20260505181104 | 28 | 170 | 3.2 | 16.1 | 0.00 | 0.00 | 0.00 | 39 | 1009.2 |
| 20260505180605 | 28 | 128 | 8.0 | 22.5 | 0.00 | 0.00 | 0.00 | 38 | 1009.3 |
| 20260505180105 | 28 | 146 | 6.4 | 16.1 | 0.00 | 0.00 | 0.00 | 37 | 1009.4 |
| 20260505175605 | 28 | 189 | 4.8 | 11.3 | 0.00 | 0.00 | 0.00 | 37 | 1009.6 |
| 20260505175104 | 28 | 141 | 4.8 | 19.3 | 0.00 | 0.00 | 0.00 | 38 | 1009.5 |
| 20260505174605 | 28 | 128 | 8.0 | 19.3 | 0.00 | 0.00 | 0.00 | 37 | 1009.5 |
| 20260505174105 | 28 | 127 | 4.8 | 19.3 | 0.00 | 0.00 | 0.00 | 38 | 1009.6 |
| 20260505173604 | 28 | 136 | 8.0 | 16.1 | 0.00 | 0.00 | 0.00 | 37 | 1009.6 |
| 20260505173105 | 28 | 216 | 6.4 | 12.9 | 0.00 | 0.00 | 0.00 | 37 | 1009.7 |
| 20260505172604 | 28 | 146 | 3.2 | 19.3 | 0.00 | 0.00 | 0.00 | 39 | 1009.7 |
| 20260505172104 | 28 | 83 | 3.2 | 12.9 | 0.00 | 0.00 | 0.00 | 39 | 1009.7 |
| 20260505171104 | 28 | 150 | 4.8 | 11.3 | 0.00 | 0.00 | 0.00 | 38 | 1009.8 |
| 20260505170604 | 28 | 111 | 4.8 | 19.3 | 0.00 | 0.00 | 0.00 | 38 | 1010.0 |
| 20260505165605 | 28 | 101 | 3.2 | 12.9 | 0.00 | 0.00 | 0.00 | 39 | 1009.9 |
| 20260505164604 | 27 | 174 | 3.2 | 4.8 | 0.00 | 0.00 | 0.00 | 40 | 1009.9 |
| 20260505164105 | 27 | 119 | 4.8 | 19.3 | 0.00 | 0.00 | 0.00 | 40 | 1009.9 |
| 20260505163604 | 27 | 105 | 3.2 | 12.9 | 0.00 | 0.00 | 0.00 | 40 | 1010.0 |
| 20260505163105 | 27 | 196 | 3.2 | 12.9 | 0.00 | 0.00 | 0.00 | 40 | 1010.0 |